Regional Weather Roundup
Issued by NWS Upton, NY

Current Version | Previous Version | Graphics & Text | Print | Product List | Glossary Off
Versions: 1 2 3 4 5 6 7 8 9 10 11 12 13 14 15 16 17 18 19 20 21 22 23 24 25 26 27 28 29 30 31 32 33 34 35 36 37 38 39 40 41 42 43 44 45 46 47 48 49 50

271
ASUS41 KOKX 240808
RWROKX

REGIONAL WEATHER ROUNDUP
NATIONAL WEATHER SERVICE NEW YORK NY
300 AM EST TUE JAN 24 2017

NOTE: "FAIR" INDICATES FEW OR NO CLOUDS BELOW 12,000 FEET WITH NO
SIGNIFICANT WEATHER AND/OR OBSTRUCTIONS TO VISIBILITY.

NYZ071-072-176-178-NJZ106-104-240900-
NEW YORK CITY METRO AREA

CITY           SKY/WX    TMP DP  RH WIND       PRES   REMARKS
Central Park   MIX PCPN  37  35  92 NE14G36   29.38F WCI  28
Wall St Helipt LGT RAIN  39  36  89 NE22G31   29.35F WCI  29
LaGuardia APRT LGT RAIN  39  35  86 NE25G37   29.36F FOG     WCI  28
Kennedy INTL   LGT RAIN  39  36  89 NE31G40   29.34F FOG     WCI  27
Breezy Point     N/A     37 N/A N/A NE21G35     N/A  WCI  27
Newark/Liberty LGT RAIN  38  35  89 N20       29.37S WCI  28
Teterboro      RAIN      38  35  89 N14G21    29.37S FOG     WCI  30
$$

NYZ177-179-078>081-240900-
LONG ISLAND NEW YORK

CITY           SKY/WX    TMP DP  RH WIND       PRES   REMARKS
Jones Beach      N/A     39 N/A N/A NE32G44     N/A  WCI  27
Matinecock PT  NOT AVBL
Farmingdale    LGT RAIN  39  36  89 NE25G39   29.32F FOG     WCI  28
MacArthur/ISP  LGT RAIN  40  38  93 NE23G38   29.32R FOG     WCI  30
Shirley        LGT RAIN  40  38  93 NE14G32   29.33F FOG     WCI  32
Westhampton    LGT RAIN  40  37  89 NE30G47   29.33F WCI  28
Southampton    NOT AVBL
Bridgehampton  NOT AVBL
East Hampton   LGT RAIN  39  37  93 NE23G41   29.34F WCI  29
Montauk          N/A     41  39  93 NE22G43   29.38F
$$

NYZ052-065-067-240900-
HUDSON VALLEY

CITY           SKY/WX    TMP DP  RH WIND       PRES   REMARKS
White Plains   LGT RAIN  36  33  89 NE15G31   29.35F FOG     WCI  27
Newburgh       NOT AVBL
Montgomery     LGT SNOW  33  30  88 NE18G30   29.44F FOG     WCI  22
Poughkeepsie   MIX PCPN  32  31  96 N10       29.47F FOG     WCI  24
Albany         SLEET     33  29  85 N10       29.61F FOG     WCI  25
$$

NJZ001-105-106-008-010-013-015-019>022-104-240900-
NEW JERSEY

CITY           SKY/WX    TMP DP  RH WIND       PRES   REMARKS
Newark/Liberty LGT RAIN  38  35  89 N20       29.37S WCI  28
Teterboro      RAIN      38  35  89 N14G21    29.37S FOG     WCI  30
Caldwell       LGT RAIN  37  34  89 NE13G26   29.39F WCI  29
Somerville     LGT RAIN  38  34  85 NE10G16   29.38S WCI  31
Linden         DRIZZLE   38  35  90 NE10G22   29.37F WCI  30
Sussex         LGT RAIN  33  31  92 NE15G22   29.42S FOG     WCI  23
Andover          N/A     32  30  92 VRB7G17   29.41S WCI  26
Trenton        LGT RAIN  38  36  92 N10       29.38R FOG     WCI  31
Millville      CLOUDY    39  38  96 N12       29.34S WCI  32
Atlantic City  LGT RAIN  40  38  93 N15       29.30F FOG     WCI  32
Wrightstown    LGT RAIN  38  36  92 N15G22    29.32S FOG     WCI  29
Toms River     LGT RAIN  39  38  96 N15G25    29.32S FOG     WCI  31
Belmar         LGT RAIN  38  37  97 N17       29.32F FOG     WCI  28
$$

PAZ047>061-062-071-240900-
EASTERN PENNSYLVANIA

CITY           SKY/WX    TMP DP  RH WIND       PRES   REMARKS
Philadelphia   LGT RAIN  38  36  92 N17       29.40S FOG     WCI  28
Allentown      RAIN      37  33  85 N10       29.45R FOG     WCI  30
Scranton       RAIN      34  33  96 E3        29.48S FOG
$$

CTZ002-004>006-009-010-012-RIZ004-006-007-MAZ004-011-015-240900-
SOUTHERN NEW ENGLAND
 IN CT

CITY           SKY/WX    TMP DP  RH WIND       PRES   REMARKS
Bradley INTL   SLEET     33  30  88 N25G32    29.53F FOG     WCI  20
Hartford       LGT SNOW  34  31  88 N17G25    29.49F FOG     WCI  23
Danbury        RAIN      34  30  85 NE15G29   29.41F FOG     WCI  24
Wtrbury/Oxford CLOUDY    34  28  80 NE29G41   29.38F WCI  20
Bridgeport     RAIN      38  33  82 NE23G38   29.35F WCI  27
Meriden        LGT RAIN  35  31  85 N16G25    29.44F FOG     WCI  25
New Haven      LGT RAIN  37  34  89 NE22G28   29.41S FOG     WCI  26
Chester        LGT RAIN  37  36  93 NE23G33   29.38F WCI  26
Groton         RAIN      40  37  89 NE37G49   29.38F FOG     WCI  27
Wilimantic     LGT RAIN  38  34  85 NE26G40   29.47F FOG     WCI  26

 IN RI

CITY           SKY/WX    TMP DP  RH WIND       PRES   REMARKS
Providence     RAIN      39  35  86 NE25G38   29.53F FOG     WCI  28
Block Island   NOT AVBL
Westerly       LGT RAIN  40  35  83 NE23G40   29.41F WCI  30
 IN MA

CITY           SKY/WX    TMP DP  RH WIND       PRES   REMARKS
Boston         HVY RAIN  38  37  97 NE32G47   29.64F FOG     WCI  25
Worcester      SNOW      28  25  88 NE17G41   29.54F VSB 1/2 WCI  16
Westfield      MIX PCPN  31  32 100 N18G26    29.56F WCI  19
Provincetown   LGT RAIN  41  40  96 E32G47    29.53F FOG
Nantucket      LGT RAIN  47  45  93 E30G46    29.37S FOG
$$

ANZ330-335-338-340-345-350-353-355-240900-
COASTAL MARINE OBSERVATIONS


STATION/POSITION TIME  SKY/WX   TEMP    WIND        PRES    VSBY  WAVE
                                AIR SEA DIR/SP/G                  HT/PER
                 (UTC)          (F)     (DEG/KT/KT) (MB)    (MI)  (FT/S)
NY HARB ENTRANCE 0650            41 43   40/ 31/ 37  990.7         16/12
20 S FIRE ISLAND 0750            43 46   50/ 37/ 45  988.4         18/11
GREAT SOUTH BAY  NOT AVBL
23 SSW MONTAUK P 0650            43 47   40/ 41/ 51  991.0         16/11
15 E BARNEGAT LI 0730               46                N/A          20/11
HUDSON CANYON    0650            58 51               987.0         20/11
KINGS POINT      NOT AVBL
EXECUTION ROCKS  0745            38      40/ 23/ 35   N/A
CENTRAL LI SOUND 0715            41      60/ 31/ 41   N/A           6/ 6
EASTERN LI SOUND NOT AVBL
ROBBINS REEF     0742            38      30/ 26/ 37  993.9
$$


>>>>>>>>>>>>>>>>>>>>>>>>>>>> KEY <<<<<<<<<<<<<<<<<<<<<<<<<<<
>                                                          <
>     SKY/WX - Sky Condition/Present Weather               <
>     TMP    - Temperature in Fahrenheit                   <
>     DP     - Dew Point in Fahrenheit                     <
>     RH     - Relative Humidity in Percent                <
>     WIND   - Direction (from) and Speed in MPH           <
>     PRES   - Mean Sea Level Pressure (inches of Hg)      <
>     WCI    - Wind Chill Index                            <
>     VSB    - VISIBILITY IN MILES                         <
>     HX     - HEAT INDEX                                  <
>     TC     - TEMPERATURE IN CELSIUS                      <
>     VRB    - VARIABLE WIND DIRECTION                     <
>                                                          <
>>>>>>>>>>>>>>>>>>>>>>>>>>>> KEY <<<<<<<<<<<<<<<<<<<<<<<<<<<




USA.gov is the U.S. government's official web portal to all federal, state and local government web resources and services.